Regional Weather Roundup
Issued by NWS Green Bay, WI

Home | Current Version | Previous Version | Graphics & Text | Print | Product List | Glossary Off
Versions: 1 2 3 4 5 6 7 8 9 10 11 12 13 14 15 16 17 18 19 20 21 22 23 24 25 26 27 28 29 30 31 32 33 34 35 36 37 38 39 40 41 42 43 44 45 46 47 48 49 50

336
ASUS43 KGRB 250911
RWRGRB

NORTH-CENTRAL AND NORTHEAST WISCONSIN REGIONAL WEATHER ROUNDUP
NATIONAL WEATHER SERVICE GREEN BAY WI
400 AM CDT WED APR 25 2018

WIZ005-009-010>012-018-019-251000-
NORTH CENTRAL WISCONSIN

CITY           SKY/WX    TMP DP  RH WIND       PRES   REMARKS
IRONWOOD       FAIR      24  22  91 CALM      30.24S
MANITOWISH WTR FAIR      28  28 100 CALM      30.20S
ARBOR VITAE    FAIR      31  29  94 CALM      30.19S
EAGLE RIVER    FAIR      29  28  92 N6        30.18R
LAND O LAKES   FAIR      30  28  94 CALM      30.20R
RHINELANDER    FAIR      31  29  92 N3        30.18R
PHILLIPS       FAIR      28  27  96 N5        30.20S
ANTIGO         FAIR      31  30  95 N8        30.16S
TOMAHAWK       FAIR      29  28  97 CALM      30.19R
MERRILL        FAIR      32  32 100 N5        30.19R
$$

WIZ013-073-251000-
NORTHEAST WISCONSIN

CITY           SKY/WX    TMP DP  RH WIND       PRES   REMARKS
IRON MOUNTAIN  FAIR      31  27  85 NW7       30.15S
MARINETTE      FAIR      35  31  85 N9        30.15S
OCONTO         FAIR      37  33  86 N8        30.15R
$$

WIZ017-030-035>037-045-251000-
CENTRAL WISCONSIN

CITY           SKY/WX    TMP DP  RH WIND       PRES   REMARKS
MEDFORD        FAIR      31  29  92 N6        30.18R
WAUSAU         FAIR      35  33  92 N9        30.15R
MOSINEE        FAIR      34  34 100 N10       30.17S
MARSHFIELD     FAIR      36  34  92 N8        30.15S
WISC RAPIDS    FAIR      38  33  82 N7        30.17R
STEVENS POINT  FAIR      35  35 100 N3        30.16S
WAUPACA        FAIR      41  35  79 CALM      30.16R
SHAWANO        FAIR      38  35  87 N7        30.15S
CLINTONVILLE   FAIR      38  34  84 N6        30.15S
WAUTOMA        FAIR      41  35  79 N6        30.15R
$$

WIZ038-039-048-051-251000-
FOX VALLEY

CITY           SKY/WX    TMP DP  RH WIND       PRES   REMARKS
NWS GREEN BAY  FAIR      39  35  86 N12       30.14S
APPLETON       FAIR      37  32  81 N10       30.12S
OSHKOSH        FAIR      40  35  83 N9        30.13R
FOND DU LAC    FAIR      41  34  76 NE10      30.13R
$$

WIZ022-050-052-251000-
EAST CENTRAL WISCONSIN

CITY           SKY/WX    TMP DP  RH WIND       PRES   REMARKS
EPHRAIM        FAIR      34  28  80 N13       30.12S
WASHINGTON ISL FAIR      33  30  88 N7        30.12S
STURGEON BAY   FAIR      36  31  82 N13       30.14R
MANITOWOC      NOT AVBL
SHEBOYGAN      FAIR      40  35  83 N6        30.11S
$$

LMZ563-521-522-541>543-251000-
LAKESHORE

STATION/POSITION TIME  TEMP    WIND        PRES    VSBY  WAVE
                       AIR SEA DIR/SP/G                  HT/PER
                 (UTC) (F)     (DEG/KT/KT) (MB)    (MI)  (FT/S)
SHEBOYGAN LKSHOR 0900   39      10/ 14/ 16 1020.0F
KEWAUNEE LKSHORE 0848   40     340/  7/ 12 1019.0F
NORTHPORT PIER   0840   35                 1020.0S
SISTER BAY LKSHO 0827   35      10/  9/ 10   N/A
MENOMINEE LKSHOR 0848   35     320/ 10/ 12 1020.4R
$$




USA.gov is the U.S. government's official web portal to all federal, state and local government web resources and services.